DW9227 Weather Reports


Display with metric or nautical units.
time (UTC)temp
F
wind
direction
speed
MPH
gust
MPH
rain 1hr
in
rain 24hr
in
rain mn
in
humidity
%
barometer
mb
20260508081557 57 128 0.0 0.0 0.00 0.16 0.16 87 1017.1
20260508080052 57 128 0.0 0.0 0.00 0.16 0.16 92 1017.1
20260508074548 57 128 0.0 0.0 0.00 0.16 0.16 93 1017.1
20260508073047 57 128 0.0 0.0 0.00 0.16 0.16 93 1017.1
20260508071554 56 128 0.0 0.0 0.00 0.16 0.16 93 1017.0
20260508070134 56 128 0.0 0.0 0.00 0.16 0.16 94 1017.0
20260508064547 56 128 0.0 0.0 0.02 0.16 0.16 93 1016.9
20260508063043 55 128 0.0 0.0 0.06 0.16 0.16 93 1016.9
20260508061548 54 128 0.0 0.0 0.09 0.16 0.16 92 1016.9
20260508060040 54 128 0.0 0.0 0.11 0.16 0.16 91 1016.8
20260508054543 54 128 0.0 0.0 0.13 0.14 0.14 90 1016.7
20260508053038 54 128 0.0 0.0 0.10 0.10 0.10 89 1016.7
20260508051535 54 128 0.0 0.0 0.06 0.06 0.06 87 1016.6
20260508050036 55 128 0.0 0.0 0.05 0.05 0.05 83 1016.4
20260508044529 56 128 0.0 0.0 0.02 0.02 0.02 81 1015.8
20260508043048 56 128 0.0 0.0 0.00 0.00 0.00 79 1015.5
20260508041527 55 128 0.0 0.0 0.00 0.00 0.00 80 1015.4
20260508040029 55 128 0.0 0.0 0.00 0.00 0.00 80 1015.3
20260508034526 55 128 0.0 0.0 0.00 0.00 0.00 80 1015.3
20260508033025 55 128 0.0 0.0 0.00 0.00 0.00 81 1015.3
20260508031525 55 128 0.0 0.0 0.00 0.00 0.00 81 1015.2
20260508030038 55 128 0.0 0.0 0.00 0.00 0.00 81 1015.4
20260508024527 55 128 0.0 0.0 0.00 0.00 0.00 81 1015.3
20260508023022 55 128 0.0 0.0 0.00 0.00 0.00 80 1015.1
20260508021520 55 128 0.0 0.0 0.00 0.00 0.00 80 1015.1
20260508020018 55 128 0.0 0.0 0.00 0.00 0.00 79 1015.1
20260508014517 56 128 0.0 0.0 0.00 0.00 0.00 79 1015.1
20260508013016 56 128 0.0 0.0 0.00 0.00 0.00 78 1015.0
20260508011515 56 128 0.0 0.0 0.00 0.00 0.00 79 1015.1
20260508010022 56 128 0.0 0.0 0.00 0.00 0.00 79 1015.0
20260508004514 56 128 0.0 0.0 0.00 0.00 0.00 80 1015.2
20260508003012 56 128 0.0 0.0 0.00 0.00 0.00 80 1015.3
20260508001512 56 128 0.0 0.0 0.00 0.00 0.00 80 1015.4
20260508000011 56 128 0.0 0.0 0.00 0.00 0.00 80 1015.5
20260507234511 56 128 0.0 0.0 0.00 0.00 0.00 80 1015.5
20260507233009 56 128 0.0 0.0 0.00 0.00 0.00 80 1015.5
20260507231515 57 128 0.0 0.0 0.00 0.00 0.00 79 1015.4
20260507230005 57 128 0.0 0.0 0.00 0.00 0.00 79 1015.3
20260507224504 57 128 0.0 0.0 0.00 0.00 0.00 78 1015.3
20260507223002 58 128 0.0 0.0 0.00 0.00 0.00 77 1015.3
20260507221603 57 128 0.0 0.0 0.00 0.00 0.00 78 1015.3
20260507220059 57 128 0.0 0.0 0.00 0.00 0.00 78 1015.3
20260507214557 58 128 0.0 0.0 0.00 0.00 0.00 77 1015.2
20260507213105 58 128 0.0 0.0 0.00 0.00 0.00 75 1015.0
20260507211559 59 128 0.0 0.0 0.00 0.00 0.00 74 1014.9
20260507210054 59 128 0.0 0.0 0.00 0.00 0.00 73 1014.9
20260507204600 60 128 0.0 0.0 0.00 0.00 0.00 72 1014.8
20260507203055 60 128 0.0 0.0 0.00 0.00 0.00 70 1014.6
20260507201602 60 128 0.0 0.0 0.00 0.00 0.00 70 1014.6
20260507200055 60 128 0.0 0.0 0.00 0.00 0.00 71 1014.6
20260507194559 61 128 0.0 0.0 0.00 0.00 0.00 70 1014.4
20260507193051 61 128 0.0 0.0 0.00 0.00 0.00 68 1014.0
20260507191610 62 128 0.0 0.0 0.00 0.00 0.00 66 1013.6
20260507190050 63 128 0.0 0.0 0.00 0.00 0.00 63 1013.4
20260507184557 64 128 0.0 0.0 0.00 0.00 0.00 62 1013.2
20260507183049 64 128 0.0 0.0 0.00 0.00 0.00 60 1013.1
20260507181548 65 128 0.0 0.0 0.00 0.00 0.00 59 1012.9
20260507180048 66 128 0.0 0.0 0.00 0.00 0.00 57 1012.8
20260507174547 66 129 0.0 8.0 0.00 0.00 0.00 58 1012.6
20260507173046 67 113 0.0 4.0 0.00 0.00 0.00 56 1012.5
20260507171550 67 84 0.0 6.0 0.00 0.00 0.00 55 1012.5
20260507170047 68 76 0.0 9.0 0.00 0.00 0.00 55 1012.4
20260507164557 68 136 0.0 6.0 0.00 0.00 0.00 55 1012.2
20260507163043 68 157 0.0 8.0 0.00 0.00 0.00 55 1012.1
20260507161547 68 136 1.0 9.0 0.00 0.00 0.00 55 1012.0
20260507160047 68 150 1.0 8.0 0.00 0.00 0.00 55 1012.0
20260507154541 69 97 1.0 9.0 0.00 0.00 0.00 55 1012.1
20260507153040 69 137 2.0 9.0 0.00 0.00 0.00 55 1012.0
20260507151540 69 128 1.0 13.0 0.00 0.00 0.00 56 1012.1
20260507150039 69 129 2.0 9.0 0.00 0.00 0.00 55 1012.2
20260507144538 69 149 2.0 10.0 0.00 0.01 0.00 56 1012.3
20260507143055 69 143 1.0 13.0 0.00 0.01 0.00 55 1012.3
20260507141553 69 141 0.0 14.0 0.00 0.01 0.00 57 1012.4
20260507140036 69 136 2.0 10.0 0.00 0.01 0.00 57 1012.4
20260507134534 69 99 0.0 11.0 0.00 0.01 0.00 56 1012.6
20260507133035 68 123 0.0 13.0 0.00 0.01 0.00 58 1012.8
20260507131538 68 119 2.0 10.0 0.00 0.01 0.00 57 1012.8
20260507130039 68 65 1.0 11.0 0.00 0.01 0.00 57 1012.9
20260507124528 68 138 1.0 14.0 0.00 0.01 0.00 57 1013.1
20260507123027 68 146 2.0 11.0 0.00 0.01 0.00 58 1013.0
20260507121527 68 93 0.0 10.0 0.00 0.01 0.00 58 1013.2
20260507120025 67 126 2.0 17.0 0.00 0.01 0.00 58 1013.4
20260507114528 67 132 2.0 9.0 0.00 0.02 0.00 60 1013.4
20260507113024 67 128 0.0 10.0 0.00 0.02 0.00 60 1013.5
20260507111523 67 94 2.0 9.0 0.00 0.02 0.00 59 1013.6
20260507110022 67 43 1.0 10.0 0.00 0.02 0.00 61 1013.8
20260507104522 67 105 1.0 11.0 0.00 0.02 0.00 61 1013.9
20260507103018 66 134 2.0 12.0 0.00 0.02 0.00 60 1014.0
20260507101518 66 138 1.0 8.0 0.00 0.02 0.00 62 1014.2
20260507100016 66 103 1.0 10.0 0.00 0.02 0.00 62 1014.4
20260507094515 65 111 0.0 8.0 0.00 0.03 0.00 63 1014.5
20260507093013 65 63 0.0 8.0 0.00 0.03 0.00 61 1014.5
20260507091514 64 69 1.0 6.0 0.00 0.03 0.00 61 1014.4
20260507090008 63 250 0.0 4.0 0.00 0.03 0.00 66 1014.5
20260507084505 62 258 0.0 4.0 0.00 0.25 0.00 64 1014.5
20260507083102 61 263 0.0 3.0 0.00 0.25 0.00 62 1014.5